| time (UTC) | temp F | wind direction | speed knots | gust knots | rain 1hr in | rain 24hr in | rain mn in | humidity % | barometer mb |
| 20260906124317 | 71 | 74 | 0.9 | 2.6 | 0.00 | 0.00 | 0.00 | 92 | 1020.3 |
| 20260906123816 | 70 | 53 | 1.7 | 2.6 | 0.00 | 0.00 | 0.00 | 93 | 1020.6 |
| 20260906123311 | 70 | 76 | 0.0 | 0.9 | 0.00 | 0.00 | 0.00 | 93 | 1020.5 |
| 20260906122811 | 70 | 77 | 0.9 | 2.6 | 0.00 | 0.00 | 0.00 | 94 | 1020.6 |
| 20260906122306 | 69 | 68 | 1.7 | 2.6 | 0.00 | 0.00 | 0.00 | 94 | 1020.4 |
| 20260906121803 | 69 | 23 | 0.9 | 1.7 | 0.00 | 0.00 | 0.00 | 95 | 1020.5 |
| 20260906121259 | 69 | 66 | 0.0 | 1.7 | 0.00 | 0.00 | 0.00 | 95 | 1020.2 |
| 20260906120754 | 68 | 73 | 0.0 | 0.9 | 0.00 | 0.00 | 0.00 | 96 | 1020.1 |
| 20260906120251 | 68 | 62 | 0.0 | 2.6 | 0.00 | 0.00 | 0.00 | 96 | 1020.2 |
| 20260906115747 | 68 | 74 | 1.7 | 2.6 | 0.00 | 0.00 | 0.00 | 97 | 1020.1 |
| 20260906115241 | 67 | 92 | 0.0 | 2.6 | 0.00 | 0.00 | 0.00 | 98 | 1019.8 |
| 20260906114740 | 67 | 62 | 1.7 | 1.7 | 0.00 | 0.00 | 0.00 | 98 | 1019.9 |
| 20260906114236 | 67 | 46 | 0.9 | 3.5 | 0.00 | 0.00 | 0.00 | 98 | 1019.7 |
| 20260906113731 | 67 | 65 | 1.7 | 2.6 | 0.00 | 0.00 | 0.00 | 98 | 1019.7 |
| 20260906113231 | 67 | 34 | 0.0 | 0.9 | 0.00 | 0.00 | 0.00 | 98 | 1019.5 |
| 20260906112730 | 67 | 53 | 1.7 | 1.7 | 0.00 | 0.00 | 0.00 | 98 | 1019.3 |
| 20260906112227 | 67 | 59 | 0.0 | 1.7 | 0.00 | 0.00 | 0.00 | 98 | 1019.4 |
| 20260906111726 | 67 | 64 | 0.0 | 1.7 | 0.00 | 0.00 | 0.00 | 98 | 1019.3 |
| 20260906111221 | 67 | 72 | 0.9 | 2.6 | 0.00 | 0.00 | 0.00 | 98 | 1019.3 |
| 20260906110716 | 67 | 67 | 0.9 | 1.7 | 0.00 | 0.00 | 0.00 | 98 | 1019.3 |
| 20260906110212 | 67 | 59 | 0.9 | 5.2 | 0.00 | 0.00 | 0.00 | 98 | 1019.2 |
| 20260906105711 | 67 | 46 | 0.0 | 0.9 | 0.00 | 0.00 | 0.00 | 98 | 1019.3 |
| 20260906105208 | 67 | 67 | 0.9 | 2.6 | 0.00 | 0.00 | 0.00 | 98 | 1019.3 |
| 20260906104707 | 67 | 331 | 1.7 | 3.5 | 0.00 | 0.00 | 0.00 | 98 | 1019.3 |
| 20260906104207 | 67 | 53 | 0.0 | 2.6 | 0.00 | 0.00 | 0.00 | 98 | 1019.1 |
| 20260906103704 | 67 | 46 | 0.9 | 2.6 | 0.00 | 0.00 | 0.00 | 98 | 1019.0 |
| 20260906103159 | 67 | 39 | 1.7 | 1.7 | 0.00 | 0.00 | 0.00 | 98 | 1018.9 |
| 20260906102655 | 67 | 43 | 0.9 | 1.7 | 0.00 | 0.00 | 0.00 | 98 | 1018.9 |
| 20260906102154 | 67 | 64 | 0.0 | 1.7 | 0.00 | 0.00 | 0.00 | 98 | 1019.0 |
| 20260906101653 | 67 | 67 | 0.0 | 2.6 | 0.00 | 0.00 | 0.00 | 98 | 1018.8 |
| 20260906101148 | 67 | 30 | 2.6 | 2.6 | 0.00 | 0.00 | 0.00 | 98 | 1019.1 |
| 20260906100645 | 67 | 66 | 0.0 | 2.6 | 0.00 | 0.00 | 0.00 | 98 | 1018.9 |
| 20260906100144 | 67 | 49 | 1.7 | 2.6 | 0.00 | 0.00 | 0.00 | 98 | 1018.9 |
| 20260906095639 | 67 | 31 | 0.0 | 0.9 | 0.00 | 0.00 | 0.00 | 98 | 1018.8 |
| 20260906095135 | 68 | 71 | 1.7 | 1.7 | 0.00 | 0.00 | 0.00 | 98 | 1018.9 |
| 20260906094634 | 68 | 18 | 0.9 | 2.6 | 0.00 | 0.00 | 0.00 | 98 | 1018.7 |
| 20260906094130 | 68 | 63 | 0.9 | 1.7 | 0.00 | 0.00 | 0.00 | 98 | 1019.0 |
| 20260906093626 | 68 | 38 | 1.7 | 2.6 | 0.00 | 0.00 | 0.00 | 97 | 1019.0 |
| 20260906093125 | 68 | 53 | 0.9 | 2.6 | 0.00 | 0.00 | 0.00 | 97 | 1018.8 |
| 20260906092620 | 68 | 19 | 0.9 | 3.5 | 0.00 | 0.00 | 0.00 | 97 | 1018.8 |
| 20260906092115 | 68 | 21 | 1.7 | 2.6 | 0.00 | 0.00 | 0.00 | 97 | 1018.7 |
| 20260906091612 | 68 | 55 | 0.9 | 1.7 | 0.00 | 0.00 | 0.00 | 97 | 1018.7 |
| 20260906091109 | 68 | 61 | 1.7 | 2.6 | 0.00 | 0.00 | 0.00 | 97 | 1018.8 |
| 20260906090608 | 68 | 36 | 0.0 | 2.6 | 0.00 | 0.00 | 0.00 | 97 | 1018.7 |
| 20260906090108 | 68 | 70 | 0.9 | 2.6 | 0.00 | 0.00 | 0.00 | 97 | 1018.5 |
| 20260906085607 | 68 | 46 | 0.9 | 2.6 | 0.00 | 0.00 | 0.00 | 97 | 1018.7 |
| 20260906085102 | 68 | 355 | 3.5 | 3.5 | 0.00 | 0.00 | 0.00 | 97 | 1018.8 |
| 20260906084557 | 68 | 26 | 1.7 | 1.7 | 0.00 | 0.00 | 0.00 | 97 | 1018.8 |
| 20260906084055 | 68 | 14 | 2.6 | 3.5 | 0.00 | 0.00 | 0.00 | 97 | 1018.6 |
| 20260906083551 | 69 | 32 | 2.6 | 2.6 | 0.00 | 0.00 | 0.00 | 97 | 1018.7 |
| 20260906083050 | 69 | 352 | 1.7 | 2.6 | 0.00 | 0.00 | 0.00 | 96 | 1018.8 |
| 20260906082546 | 69 | 60 | 1.7 | 3.5 | 0.00 | 0.00 | 0.00 | 96 | 1018.7 |
| 20260906082042 | 69 | 47 | 0.9 | 1.7 | 0.00 | 0.00 | 0.00 | 96 | 1018.7 |
| 20260906081537 | 69 | 26 | 1.7 | 1.7 | 0.00 | 0.00 | 0.00 | 96 | 1018.7 |
| 20260906081033 | 69 | 73 | 0.0 | 0.0 | 0.00 | 0.00 | 0.00 | 96 | 1018.7 |
| 20260906080529 | 69 | 65 | 0.0 | 0.0 | 0.00 | 0.00 | 0.00 | 96 | 1018.8 |
| 20260906080026 | 69 | 27 | 1.7 | 1.7 | 0.00 | 0.00 | 0.00 | 96 | 1018.7 |
| 20260906075525 | 69 | 71 | 0.0 | 0.9 | 0.00 | 0.00 | 0.00 | 96 | 1018.8 |
| 20260906075020 | 69 | 76 | 0.0 | 0.9 | 0.00 | 0.00 | 0.00 | 96 | 1018.8 |
| 20260906074515 | 69 | 68 | 0.9 | 0.9 | 0.00 | 0.00 | 0.00 | 96 | 1019.0 |
| 20260906074013 | 69 | 73 | 0.0 | 0.9 | 0.00 | 0.00 | 0.00 | 96 | 1018.6 |
| 20260906073508 | 69 | 51 | 0.0 | 0.9 | 0.00 | 0.00 | 0.00 | 96 | 1018.7 |
| 20260906073004 | 69 | 39 | 0.0 | 0.9 | 0.00 | 0.00 | 0.00 | 96 | 1018.8 |
| 20260906072459 | 69 | 61 | 0.0 | 0.0 | 0.00 | 0.00 | 0.00 | 96 | 1018.8 |
| 20260906071955 | 69 | 64 | 0.0 | 0.9 | 0.00 | 0.00 | 0.00 | 96 | 1019.1 |
| 20260906071452 | 69 | 72 | 0.0 | 1.7 | 0.00 | 0.00 | 0.00 | 96 | 1018.7 |
| 20260906070947 | 69 | 66 | 0.0 | 0.9 | 0.00 | 0.00 | 0.00 | 96 | 1019.0 |
| 20260906070443 | 69 | 47 | 1.7 | 2.6 | 0.00 | 0.00 | 0.00 | 96 | 1018.8 |
| 20260906065938 | 70 | 62 | 0.9 | 2.6 | 0.00 | 0.00 | 0.00 | 96 | 1018.8 |
| 20260906065437 | 70 | 32 | 0.9 | 1.7 | 0.00 | 0.00 | 0.00 | 95 | 1019.1 |
| 20260906064933 | 70 | 64 | 0.9 | 2.6 | 0.00 | 0.00 | 0.00 | 95 | 1019.0 |
| 20260906064429 | 70 | 65 | 0.9 | 2.6 | 0.00 | 0.00 | 0.00 | 95 | 1018.8 |
| 20260906063924 | 70 | 18 | 4.3 | 6.1 | 0.00 | 0.00 | 0.00 | 95 | 1018.9 |
| 20260906063419 | 70 | 62 | 0.9 | 2.6 | 0.00 | 0.00 | 0.00 | 95 | 1018.7 |
| 20260906062914 | 70 | 68 | 0.9 | 1.7 | 0.00 | 0.00 | 0.00 | 95 | 1018.7 |
| 20260906062414 | 70 | 61 | 0.0 | 2.6 | 0.00 | 0.00 | 0.00 | 94 | 1018.8 |
| 20260906061909 | 70 | 67 | 0.0 | 2.6 | 0.00 | 0.00 | 0.00 | 94 | 1018.8 |
| 20260906061406 | 70 | 33 | 3.5 | 6.1 | 0.00 | 0.00 | 0.00 | 94 | 1018.7 |
| 20260906060906 | 71 | 5 | 1.7 | 5.2 | 0.00 | 0.00 | 0.00 | 94 | 1018.7 |
| 20260906060403 | 71 | 43 | 1.7 | 3.5 | 0.00 | 0.00 | 0.00 | 93 | 1018.8 |
| 20260906055859 | 71 | 47 | 1.7 | 2.6 | 0.00 | 0.00 | 0.00 | 93 | 1019.0 |
| 20260906055355 | 71 | 15 | 3.5 | 6.1 | 0.00 | 0.00 | 0.00 | 93 | 1018.8 |
| 20260906054849 | 71 | 24 | 1.7 | 3.5 | 0.00 | 0.00 | 0.00 | 93 | 1019.0 |
| 20260906054344 | 71 | 37 | 0.9 | 2.6 | 0.00 | 0.00 | 0.00 | 92 | 1019.0 |
| 20260906053841 | 71 | 40 | 4.3 | 7.0 | 0.00 | 0.00 | 0.00 | 92 | 1018.8 |
| 20260906053336 | 71 | 57 | 1.7 | 5.2 | 0.00 | 0.00 | 0.00 | 92 | 1018.9 |
| 20260906052832 | 71 | 37 | 0.9 | 2.6 | 0.00 | 0.00 | 0.00 | 92 | 1018.9 |
| 20260906052328 | 71 | 50 | 3.5 | 3.5 | 0.00 | 0.00 | 0.00 | 92 | 1018.8 |
| 20260906051825 | 71 | 57 | 1.7 | 6.1 | 0.00 | 0.00 | 0.00 | 92 | 1018.9 |
| 20260906051324 | 71 | 60 | 1.7 | 1.7 | 0.00 | 0.00 | 0.00 | 92 | 1018.7 |
| 20260906050820 | 71 | 74 | 1.7 | 3.5 | 0.00 | 0.00 | 0.00 | 91 | 1018.6 |
| 20260906050315 | 71 | 47 | 1.7 | 3.5 | 0.00 | 0.00 | 0.00 | 91 | 1018.7 |
| 20260906045814 | 71 | 66 | 1.7 | 2.6 | 0.00 | 0.00 | 0.00 | 91 | 1018.5 |
| 20260906045308 | 71 | 31 | 0.0 | 3.5 | 0.00 | 0.00 | 0.00 | 91 | 1018.5 |
| 20260906044805 | 71 | 67 | 0.9 | 5.2 | 0.00 | 0.00 | 0.00 | 91 | 1018.7 |
| 20260906044259 | 72 | 40 | 2.6 | 3.5 | 0.00 | 0.00 | 0.00 | 91 | 1018.5 |
| 20260906043755 | 72 | 55 | 1.7 | 5.2 | 0.00 | 0.00 | 0.00 | 91 | 1018.4 |
| 20260906043251 | 71 | 88 | 0.9 | 3.5 | 0.00 | 0.00 | 0.00 | 91 | 1018.3 |
| 20260906042750 | 71 | 35 | 1.7 | 8.7 | 0.00 | 0.00 | 0.00 | 91 | 1018.4 |
| 20260906042250 | 71 | 83 | 1.7 | 3.5 | 0.00 | 0.00 | 0.00 | 91 | 1018.3 |
| 20260906041745 | 71 | 64 | 0.0 | 2.6 | 0.00 | 0.00 | 0.00 | 91 | 1018.0 |
| 20260906041240 | 71 | 81 | 1.7 | 3.5 | 0.00 | 0.00 | 0.00 | 91 | 1017.8 |
| 20260906040736 | 72 | 67 | 2.6 | 8.7 | 0.00 | 0.00 | 0.00 | 91 | 1017.9 |
| 20260906040231 | 71 | 33 | 1.7 | 7.0 | 0.00 | 0.00 | 0.00 | 92 | 1017.7 |
| 20260906035726 | 71 | 35 | 1.7 | 6.1 | 0.00 | 0.00 | 0.00 | 92 | 1018.0 |
| 20260906035222 | 71 | 79 | 0.0 | 1.7 | 0.00 | 0.00 | 0.00 | 92 | 1017.9 |
| 20260906034721 | 71 | 312 | 1.7 | 7.0 | 0.00 | 0.00 | 0.00 | 92 | 1017.8 |
| 20260906034216 | 71 | 1 | 0.0 | 2.6 | 0.00 | 0.00 | 0.00 | 92 | 1017.7 |
| 20260906033712 | 71 | 80 | 0.0 | 3.5 | 0.00 | 0.00 | 0.00 | 92 | 1017.7 |
| 20260906033212 | 71 | 72 | 0.0 | 2.6 | 0.00 | 0.00 | 0.00 | 91 | 1017.6 |
| 20260906032710 | 71 | 43 | 0.9 | 3.5 | 0.00 | 0.00 | 0.00 | 91 | 1017.7 |
| 20260906032209 | 71 | 63 | 2.6 | 5.2 | 0.00 | 0.00 | 0.00 | 91 | 1017.6 |
| 20260906031704 | 71 | 50 | 1.7 | 6.1 | 0.00 | 0.00 | 0.00 | 91 | 1017.8 |
| 20260906031159 | 72 | 51 | 1.7 | 5.2 | 0.00 | 0.00 | 0.00 | 91 | 1017.8 |
| 20260906030659 | 72 | 59 | 1.7 | 5.2 | 0.00 | 0.00 | 0.00 | 91 | 1017.6 |
| 20260906030154 | 72 | 46 | 2.6 | 6.1 | 0.00 | 0.00 | 0.00 | 90 | 1017.9 |
| 20260906025654 | 71 | 35 | 3.5 | 7.8 | 0.00 | 0.00 | 0.00 | 90 | 1017.8 |
| 20260906025153 | 71 | 46 | 1.7 | 3.5 | 0.00 | 0.00 | 0.00 | 90 | 1017.8 |
| 20260906024648 | 71 | 47 | 1.7 | 7.8 | 0.00 | 0.00 | 0.00 | 90 | 1017.7 |
| 20260906024147 | 71 | 49 | 0.9 | 2.6 | 0.00 | 0.00 | 0.00 | 91 | 1017.9 |
| 20260906023643 | 71 | 57 | 1.7 | 6.1 | 0.00 | 0.00 | 0.00 | 90 | 1017.7 |
| 20260906023143 | 71 | 53 | 1.7 | 6.1 | 0.00 | 0.00 | 0.00 | 90 | 1017.7 |
| 20260906022638 | 71 | 60 | 0.0 | 5.2 | 0.00 | 0.00 | 0.00 | 90 | 1017.8 |
| 20260906022134 | 71 | 66 | 0.0 | 8.7 | 0.00 | 0.00 | 0.00 | 90 | 1017.8 |
| 20260906021630 | 72 | 71 | 1.7 | 3.5 | 0.00 | 0.00 | 0.00 | 90 | 1017.6 |
| 20260906021129 | 72 | 86 | 0.9 | 3.5 | 0.00 | 0.00 | 0.00 | 90 | 1017.6 |
| 20260906020629 | 72 | 41 | 3.5 | 7.0 | 0.00 | 0.00 | 0.00 | 90 | 1017.5 |
| 20260906020123 | 72 | 50 | 0.9 | 7.0 | 0.00 | 0.00 | 0.00 | 90 | 1017.5 |
| 20260906015618 | 72 | 73 | 1.7 | 5.2 | 0.00 | 0.00 | 0.00 | 90 | 1017.8 |
| 20260906015116 | 72 | 64 | 2.6 | 7.0 | 0.00 | 0.00 | 0.00 | 90 | 1017.8 |
| 20260906014611 | 72 | 1 | 3.5 | 7.0 | 0.00 | 0.00 | 0.00 | 89 | 1017.9 |
| 20260906014108 | 72 | 60 | 4.3 | 7.8 | 0.00 | 0.00 | 0.00 | 89 | 1017.7 |
| 20260906013603 | 72 | 53 | 6.1 | 8.7 | 0.00 | 0.00 | 0.00 | 89 | 1017.8 |
| 20260906013058 | 72 | 79 | 1.7 | 6.1 | 0.00 | 0.00 | 0.00 | 88 | 1017.7 |
| 20260906012553 | 72 | 73 | 2.6 | 6.1 | 0.00 | 0.00 | 0.00 | 89 | 1017.8 |
| 20260906012052 | 72 | 67 | 5.2 | 8.7 | 0.00 | 0.00 | 0.00 | 89 | 1017.9 |
| 20260906011549 | 72 | 25 | 1.7 | 6.1 | 0.00 | 0.00 | 0.00 | 89 | 1017.9 |
| 20260906011048 | 72 | 49 | 3.5 | 5.2 | 0.00 | 0.00 | 0.00 | 90 | 1017.7 |
| 20260906010544 | 72 | 0 | 5.2 | 8.7 | 0.00 | 0.00 | 0.00 | 89 | 1017.8 |
| 20260906010040 | 72 | 21 | 3.5 | 5.2 | 0.00 | 0.00 | 0.00 | 89 | 1017.9 |
| 20260906005539 | 72 | 28 | 2.6 | 6.1 | 0.00 | 0.00 | 0.00 | 88 | 1017.5 |
| 20260906005039 | 72 | 291 | 2.6 | 3.5 | 0.00 | 0.00 | 0.00 | 88 | 1017.6 |
| 20260906004538 | 73 | 42 | 3.5 | 7.8 | 0.00 | 0.00 | 0.00 | 88 | 1017.7 |
| 20260906004033 | 73 | 355 | 3.5 | 6.1 | 0.00 | 0.00 | 0.00 | 88 | 1017.6 |
| 20260906003528 | 72 | 348 | 3.5 | 5.2 | 0.00 | 0.00 | 0.00 | 88 | 1017.5 |
| 20260906003024 | 72 | 351 | 5.2 | 8.7 | 0.00 | 0.00 | 0.00 | 88 | 1017.3 |
| 20260906002519 | 72 | 351 | 5.2 | 13.9 | 0.00 | 0.00 | 0.00 | 88 | 1017.2 |
| 20260906002013 | 72 | 25 | 2.6 | 7.8 | 0.00 | 0.00 | 0.00 | 89 | 1017.5 |
| 20260906001509 | 72 | 57 | 3.5 | 7.0 | 0.00 | 0.00 | 0.00 | 90 | 1017.2 |
| 20260906001003 | 72 | 358 | 3.5 | 7.0 | 0.00 | 0.00 | 0.00 | 90 | 1017.1 |
| 20260906000500 | 72 | 10 | 4.3 | 7.0 | 0.00 | 0.00 | 0.00 | 90 | 1017.1 |
| 20260905235954 | 72 | 36 | 2.6 | 7.8 | 0.00 | 0.00 | 0.00 | 90 | 1017.2 |
| 20260905235454 | 72 | 79 | 3.5 | 8.7 | 0.00 | 0.00 | 0.00 | 90 | 1017.0 |
| 20260905234949 | 72 | 330 | 6.1 | 9.6 | 0.00 | 0.00 | 0.00 | 90 | 1017.2 |
| 20260905234445 | 73 | 56 | 2.6 | 9.6 | 0.00 | 0.00 | 0.00 | 90 | 1017.2 |
| 20260905233944 | 73 | 50 | 6.1 | 8.7 | 0.00 | 0.00 | 0.00 | 89 | 1017.1 |
| 20260905233440 | 74 | 78 | 4.3 | 7.8 | 0.00 | 0.00 | 0.00 | 88 | 1017.2 |
| 20260905232938 | 74 | 28 | 3.5 | 5.2 | 0.00 | 0.00 | 0.00 | 88 | 1017.0 |
| 20260905232435 | 74 | 67 | 2.6 | 5.2 | 0.00 | 0.00 | 0.00 | 88 | 1016.9 |
| 20260905231930 | 74 | 18 | 2.6 | 7.0 | 0.00 | 0.00 | 0.00 | 87 | 1017.0 |
| 20260905231426 | 75 | 27 | 7.8 | 12.2 | 0.00 | 0.00 | 0.00 | 86 | 1016.9 |
| 20260905230922 | 76 | 43 | 2.6 | 9.6 | 0.00 | 0.00 | 0.00 | 85 | 1016.9 |
| 20260905230420 | 76 | 68 | 7.0 | 9.6 | 0.00 | 0.00 | 0.00 | 84 | 1016.6 |
| 20260905225919 | 77 | 7 | 6.1 | 8.7 | 0.00 | 0.00 | 0.00 | 83 | 1016.4 |
| 20260905225414 | 77 | 64 | 4.3 | 8.7 | 0.00 | 0.00 | 0.00 | 83 | 1016.5 |
| 20260905224909 | 77 | 68 | 2.6 | 7.8 | 0.00 | 0.00 | 0.00 | 83 | 1016.5 |
| 20260905224405 | 78 | 62 | 4.3 | 6.1 | 0.00 | 0.00 | 0.00 | 83 | 1016.5 |
| 20260905223859 | 78 | 57 | 3.5 | 7.8 | 0.00 | 0.00 | 0.00 | 82 | 1016.3 |
| 20260905223358 | 78 | 81 | 2.6 | 8.7 | 0.00 | 0.00 | 0.00 | 82 | 1016.5 |
| 20260905222857 | 80 | 9 | 2.6 | 7.8 | 0.00 | 0.00 | 0.00 | 81 | 1016.4 |
| 20260905222356 | 79 | 72 | 3.5 | 9.6 | 0.00 | 0.00 | 0.00 | 81 | 1016.3 |
| 20260905221852 | 80 | 53 | 3.5 | 7.0 | 0.00 | 0.00 | 0.00 | 79 | 1016.3 |
| 20260905221349 | 80 | 358 | 4.3 | 8.7 | 0.00 | 0.00 | 0.00 | 78 | 1016.1 |
| 20260905220844 | 80 | 69 | 2.6 | 6.1 | 0.00 | 0.00 | 0.00 | 79 | 1016.1 |
| 20260905220341 | 80 | 57 | 3.5 | 7.8 | 0.00 | 0.00 | 0.00 | 79 | 1016.4 |
| 20260905215840 | 81 | 73 | 1.7 | 5.2 | 0.00 | 0.00 | 0.00 | 78 | 1016.4 |
| 20260905215336 | 80 | 60 | 0.9 | 7.0 | 0.00 | 0.00 | 0.00 | 78 | 1016.4 |
| 20260905214832 | 81 | 42 | 1.7 | 2.6 | 0.00 | 0.00 | 0.00 | 77 | 1016.0 |
| 20260905214332 | 82 | 67 | 1.7 | 5.2 | 0.00 | 0.00 | 0.00 | 75 | 1016.1 |
| 20260905213827 | 82 | 24 | 1.7 | 8.7 | 0.00 | 0.00 | 0.00 | 76 | 1016.1 |
| 20260905213323 | 82 | 354 | 3.5 | 7.0 | 0.00 | 0.00 | 0.00 | 75 | 1016.1 |
| 20260905212819 | 82 | 55 | 1.7 | 6.1 | 0.00 | 0.00 | 0.00 | 74 | 1015.9 |
| 20260905212319 | 82 | 16 | 6.1 | 7.0 | 0.00 | 0.00 | 0.00 | 73 | 1015.9 |
| 20260905211818 | 82 | 349 | 4.3 | 7.8 | 0.00 | 0.00 | 0.00 | 75 | 1016.3 |
| 20260905211314 | 81 | 86 | 0.9 | 5.2 | 0.00 | 0.00 | 0.00 | 78 | 1016.0 |
| 20260905210810 | 81 | 138 | 0.0 | 3.5 | 0.00 | 0.00 | 0.00 | 79 | 1015.9 |
| 20260905210309 | 80 | 9 | 2.6 | 3.5 | 0.00 | 0.00 | 0.00 | 78 | 1016.3 |
| 20260905205809 | 80 | 12 | 2.6 | 7.0 | 0.00 | 0.00 | 0.00 | 78 | 1016.3 |
| 20260905205306 | 81 | 64 | 0.9 | 3.5 | 0.00 | 0.00 | 0.00 | 79 | 1016.0 |
| 20260905204802 | 82 | 83 | 0.9 | 7.0 | 0.00 | 0.00 | 0.00 | 77 | 1016.1 |
| 20260905204259 | 80 | 70 | 0.9 | 3.5 | 0.00 | 0.00 | 0.00 | 79 | 1016.4 |
| 20260905203758 | 81 | 294 | 3.5 | 8.7 | 0.00 | 0.00 | 0.00 | 78 | 1016.5 |
| 20260905203253 | 80 | 49 | 0.9 | 3.5 | 0.00 | 0.00 | 0.00 | 78 | 1016.4 |
| 20260905202749 | 80 | 355 | 3.5 | 5.2 | 0.00 | 0.00 | 0.00 | 78 | 1016.4 |
| 20260905202244 | 80 | 341 | 4.3 | 6.1 | 0.00 | 0.00 | 0.00 | 78 | 1016.5 |
| 20260905201739 | 80 | 46 | 2.6 | 7.0 | 0.00 | 0.00 | 0.00 | 80 | 1016.5 |
| 20260905201234 | 80 | 11 | 4.3 | 6.1 | 0.00 | 0.00 | 0.00 | 79 | 1016.4 |
| 20260905200729 | 79 | 47 | 2.6 | 7.0 | 0.00 | 0.00 | 0.00 | 82 | 1016.4 |
| 20260905200225 | 79 | 48 | 2.6 | 6.1 | 0.00 | 0.00 | 0.00 | 83 | 1016.3 |
| 20260905195723 | 78 | 338 | 7.0 | 8.7 | 0.00 | 0.00 | 0.00 | 83 | 1016.7 |
| 20260905195218 | 78 | 43 | 1.7 | 3.5 | 0.00 | 0.00 | 0.00 | 83 | 1016.6 |
| 20260905194714 | 79 | 25 | 6.1 | 7.8 | 0.00 | 0.00 | 0.00 | 82 | 1016.6 |
| 20260905194213 | 78 | 17 | 5.2 | 8.7 | 0.00 | 0.00 | 0.00 | 83 | 1016.6 |
| 20260905193707 | 78 | 62 | 2.6 | 7.0 | 0.00 | 0.00 | 0.00 | 83 | 1016.6 |
| 20260905193202 | 78 | 73 | 1.7 | 5.2 | 0.00 | 0.00 | 0.00 | 84 | 1016.4 |
| 20260905192658 | 78 | 70 | 1.7 | 2.6 | 0.00 | 0.00 | 0.00 | 83 | 1016.6 |
| 20260905192154 | 78 | 1 | 2.6 | 7.0 | 0.00 | 0.00 | 0.00 | 84 | 1016.8 |
| 20260905191654 | 78 | 297 | 5.2 | 7.0 | 0.00 | 0.00 | 0.00 | 84 | 1016.6 |
| 20260905191151 | 78 | 308 | 4.3 | 7.8 | 0.00 | 0.00 | 0.00 | 84 | 1016.6 |
| 20260905190651 | 78 | 358 | 2.6 | 8.7 | 0.00 | 0.00 | 0.00 | 84 | 1016.7 |
| 20260905190150 | 78 | 318 | 2.6 | 5.2 | 0.00 | 0.00 | 0.00 | 84 | 1016.8 |
| 20260905185649 | 78 | 15 | 3.5 | 8.7 | 0.00 | 0.00 | 0.00 | 84 | 1016.8 |
| 20260905185144 | 78 | 333 | 5.2 | 7.8 | 0.00 | 0.00 | 0.00 | 83 | 1016.9 |
| 20260905184643 | 78 | 351 | 4.3 | 6.1 | 0.00 | 0.00 | 0.00 | 83 | 1016.8 |
| 20260905184142 | 78 | 49 | 2.6 | 6.1 | 0.00 | 0.00 | 0.00 | 84 | 1016.8 |
| 20260905183641 | 78 | 335 | 7.8 | 9.6 | 0.00 | 0.00 | 0.00 | 84 | 1017.0 |
| 20260905183137 | 78 | 42 | 1.7 | 6.1 | 0.00 | 0.00 | 0.00 | 84 | 1016.9 |
| 20260905182636 | 79 | 43 | 1.7 | 5.2 | 0.00 | 0.00 | 0.00 | 83 | 1017.1 |
| 20260905182136 | 79 | 339 | 1.7 | 6.1 | 0.00 | 0.00 | 0.00 | 83 | 1017.3 |
| 20260905181631 | 79 | 58 | 1.7 | 8.7 | 0.00 | 0.00 | 0.00 | 83 | 1017.0 |
| 20260905181130 | 79 | 8 | 6.1 | 7.0 | 0.00 | 0.00 | 0.00 | 83 | 1016.7 |
| 20260905180626 | 78 | 43 | 1.7 | 5.2 | 0.00 | 0.00 | 0.00 | 84 | 1016.8 |
| 20260905180121 | 79 | 355 | 7.0 | 7.8 | 0.00 | 0.00 | 0.00 | 82 | 1017.1 |
| 20260905175620 | 79 | 40 | 3.5 | 7.0 | 0.00 | 0.00 | 0.00 | 83 | 1016.7 |
| 20260905175116 | 79 | 48 | 2.6 | 7.0 | 0.00 | 0.00 | 0.00 | 83 | 1016.6 |
| 20260905174611 | 80 | 24 | 2.6 | 8.7 | 0.00 | 0.00 | 0.00 | 82 | 1016.7 |
| 20260905174106 | 80 | 334 | 1.7 | 7.0 | 0.00 | 0.00 | 0.00 | 82 | 1016.8 |
| 20260905173603 | 80 | 105 | 2.6 | 5.2 | 0.00 | 0.00 | 0.00 | 81 | 1016.7 |
| 20260905173058 | 81 | 35 | 4.3 | 6.1 | 0.00 | 0.00 | 0.00 | 81 | 1016.7 |
| 20260905172556 | 81 | 54 | 3.5 | 7.0 | 0.00 | 0.00 | 0.00 | 80 | 1016.7 |
| 20260905172052 | 81 | 328 | 6.1 | 7.8 | 0.00 | 0.00 | 0.00 | 80 | 1016.8 |
| 20260905171548 | 81 | 94 | 2.6 | 7.8 | 0.00 | 0.00 | 0.00 | 80 | 1016.8 |
| 20260905171044 | 81 | 317 | 5.2 | 12.2 | 0.00 | 0.00 | 0.00 | 80 | 1016.8 |
| 20260905170541 | 80 | 43 | 4.3 | 6.1 | 0.00 | 0.00 | 0.00 | 81 | 1016.7 |
| 20260905170035 | 80 | 48 | 7.0 | 7.8 | 0.00 | 0.00 | 0.00 | 81 | 1016.9 |
| 20260905165531 | 80 | 34 | 2.6 | 6.1 | 0.00 | 0.00 | 0.00 | 82 | 1016.7 |
| 20260905165026 | 80 | 95 | 3.5 | 7.8 | 0.00 | 0.00 | 0.00 | 82 | 1016.8 |
| 20260905164526 | 80 | 52 | 0.9 | 6.1 | 0.00 | 0.00 | 0.00 | 82 | 1017.0 |
| 20260905164020 | 81 | 94 | 3.5 | 6.1 | 0.00 | 0.00 | 0.00 | 81 | 1016.7 |
| 20260905163516 | 82 | 19 | 2.6 | 8.7 | 0.00 | 0.00 | 0.00 | 81 | 1017.0 |
| 20260905163012 | 81 | 75 | 0.0 | 5.2 | 0.00 | 0.00 | 0.00 | 80 | 1016.8 |
| 20260905162508 | 82 | 34 | 3.5 | 6.1 | 0.00 | 0.00 | 0.00 | 80 | 1016.6 |
| 20260905162003 | 82 | 99 | 0.9 | 5.2 | 0.00 | 0.00 | 0.00 | 79 | 1016.7 |
| 20260905161502 | 82 | 58 | 2.6 | 6.1 | 0.00 | 0.00 | 0.00 | 79 | 1016.8 |
| 20260905161000 | 81 | 29 | 1.7 | 6.1 | 0.00 | 0.00 | 0.00 | 80 | 1016.8 |
| 20260905160500 | 82 | 86 | 1.7 | 6.1 | 0.00 | 0.00 | 0.00 | 80 | 1016.7 |
| 20260905155959 | 82 | 30 | 3.5 | 7.0 | 0.00 | 0.00 | 0.00 | 79 | 1016.6 |
| 20260905155454 | 81 | 16 | 4.3 | 7.0 | 0.00 | 0.00 | 0.00 | 80 | 1016.8 |
| 20260905154953 | 81 | 71 | 0.9 | 5.2 | 0.00 | 0.00 | 0.00 | 80 | 1016.6 |
| 20260905154448 | 81 | 43 | 2.6 | 5.2 | 0.00 | 0.00 | 0.00 | 82 | 1016.5 |
| 20260905153944 | 81 | 33 | 6.1 | 7.8 | 0.00 | 0.00 | 0.00 | 81 | 1016.6 |
| 20260905153440 | 81 | 326 | 2.6 | 7.8 | 0.00 | 0.00 | 0.00 | 81 | 1016.5 |
| 20260905152939 | 81 | 66 | 4.3 | 7.0 | 0.00 | 0.00 | 0.00 | 81 | 1016.3 |
| 20260905152439 | 80 | 66 | 1.7 | 8.7 | 0.00 | 0.00 | 0.00 | 83 | 1016.3 |
| 20260905151939 | 79 | 46 | 2.6 | 7.0 | 0.00 | 0.00 | 0.00 | 84 | 1016.4 |
| 20260905151435 | 79 | 88 | 0.9 | 3.5 | 0.00 | 0.00 | 0.00 | 84 | 1016.3 |
| 20260905150930 | 78 | 324 | 0.9 | 6.1 | 0.00 | 0.00 | 0.00 | 86 | 1016.3 |
| 20260905150431 | 78 | 18 | 4.3 | 6.1 | 0.00 | 0.00 | 0.00 | 87 | 1016.3 |
| 20260905145927 | 77 | 49 | 2.6 | 6.1 | 0.00 | 0.00 | 0.00 | 88 | 1016.3 |
| 20260905145427 | 77 | 17 | 2.6 | 7.8 | 0.00 | 0.00 | 0.00 | 88 | 1016.1 |
| 20260905144926 | 78 | 9 | 2.6 | 7.8 | 0.00 | 0.00 | 0.00 | 87 | 1016.1 |
| 20260905144422 | 78 | 12 | 3.5 | 7.0 | 0.00 | 0.00 | 0.00 | 87 | 1016.0 |
| 20260905143921 | 78 | 83 | 3.5 | 7.0 | 0.00 | 0.00 | 0.00 | 86 | 1015.9 |
| 20260905143415 | 79 | 357 | 5.2 | 8.7 | 0.00 | 0.00 | 0.00 | 85 | 1015.8 |
| 20260905142914 | 79 | 37 | 3.5 | 6.1 | 0.00 | 0.00 | 0.00 | 85 | 1015.9 |
| 20260905142413 | 78 | 352 | 5.2 | 8.7 | 0.00 | 0.00 | 0.00 | 85 | 1016.0 |
| 20260905141909 | 78 | 43 | 2.6 | 7.8 | 0.00 | 0.00 | 0.00 | 86 | 1016.1 |
| 20260905141404 | 78 | 37 | 4.3 | 9.6 | 0.00 | 0.00 | 0.00 | 86 | 1015.8 |
| 20260905140900 | 78 | 13 | 7.0 | 8.7 | 0.00 | 0.00 | 0.00 | 86 | 1015.8 |
| 20260905140355 | 77 | 82 | 1.7 | 5.2 | 0.00 | 0.00 | 0.00 | 86 | 1015.7 |
| 20260905135854 | 78 | 339 | 4.3 | 6.1 | 0.00 | 0.00 | 0.00 | 87 | 1015.8 |
| 20260905135350 | 77 | 346 | 1.7 | 5.2 | 0.00 | 0.00 | 0.00 | 88 | 1015.6 |
| 20260905134845 | 77 | 60 | 1.7 | 2.6 | 0.00 | 0.00 | 0.00 | 88 | 1015.8 |
| 20260905134344 | 77 | 55 | 2.6 | 3.5 | 0.00 | 0.00 | 0.00 | 89 | 1015.8 |
| 20260905133838 | 75 | 354 | 3.5 | 6.1 | 0.00 | 0.00 | 0.00 | 92 | 1015.9 |
| 20260905133334 | 74 | 358 | 1.7 | 7.8 | 0.00 | 0.00 | 0.00 | 94 | 1015.9 |
| 20260905132833 | 74 | 17 | 1.7 | 5.2 | 0.00 | 0.00 | 0.00 | 94 | 1016.4 |
| 20260905132329 | 74 | 307 | 2.6 | 7.0 | 0.00 | 0.00 | 0.00 | 95 | 1016.3 |
| 20260905131828 | 74 | 7 | 4.3 | 6.1 | 0.00 | 0.00 | 0.00 | 95 | 1016.3 |
| 20260905131324 | 74 | 70 | 1.7 | 5.2 | 0.00 | 0.00 | 0.00 | 96 | 1016.1 |
| 20260905130819 | 74 | 48 | 2.6 | 3.5 | 0.00 | 0.00 | 0.00 | 96 | 1015.8 |
| 20260905130318 | 74 | 52 | 1.7 | 5.2 | 0.00 | 0.00 | 0.00 | 95 | 1015.7 |
| 20260905125813 | 74 | 64 | 1.7 | 5.2 | 0.00 | 0.00 | 0.00 | 96 | 1015.7 |
| 20260905125308 | 74 | 57 | 1.7 | 3.5 | 0.00 | 0.00 | 0.00 | 96 | 1015.5 |
| 20260905124804 | 74 | 29 | 3.5 | 5.2 | 0.00 | 0.00 | 0.00 | 96 | 1015.2 |